COSMOS 2278

Last updated on Thu Oct 30 2025 00:02:15 GMT+0000 (Coordinated Universal Time)

1 23087U 94023A 25302.47393984 -.00000093 00000+0 -24094-4 0 9993 2 23087 71.0514 89.6175 0010715 237.3727 122.6362 14.14330978626254
UTC large
Height (km)
Speed (km/s)
/
Latitude / Longitude
Inclination (degrees)
Orbital Period (minutes)
Azimuth
Elevation
Range (km)
Doppler Factor

Next 0 passes for location: London (51.5072 / 0.1276)

Sorry there are no passes over London.